Location: Les Coudrans
(46.1056°N, 1.1158°W)
Time: 13:06:56
(UTC+00:00)

Cosmos 1689 Rocket - Pass Details

Date: 03 March 2021
Orbit: 350 x 361 km, 97.5° (Epoch: 14 April)

Event Time Altitude Azimuth Distance (km) Brightness Sun altitude
Rises 18:55:48 0° 13° (NNE) 2,209 5.8 -11.5°
Reaches altitude 10° 18:57:44 10° 14° (NNE) 1,359 4.7 -11.9°
Maximum altitude 19:00:38 86° 100° (E) 372 1.9 -12.4°
Drops below altitude 10° 19:03:31 10° 192° (SSW) 1,354 4.9 -12.9°
Sets 19:05:26 0° 193° (SSW) 2,199 6.0 -13.2°
